Regional Weather Roundup
Issued by NWS

Home | Current Version | Previous Version | Graphics & Text | Print | Product List | Glossary On
Versions: 1 2 3 4 5 6 7 8 9 10 11 12 13 14 15 16 17 18 19 20 21 22 23 24 25 26 27 28 29 30 31 32 33 34 35 36 37 38 39 40 41 42 43 44 45 46 47 48 49 50
000
ASUS43 KFSD 300802
RWRSD

WEATHER ROUNDUP FOR SOUTH DAKOTA
NATIONAL WEATHER SERVICE SIOUX FALLS SD
300 AM CDT FRI SEP 30 2016

NOTE: "FAIR" INDICATES FEW OR NO CLOUDS BELOW 12,000 FEET WITH NO
SIGNIFICANT WEATHER AND/OR OBSTRUCTIONS TO VISIBILITY.


SDZ001>005-009-010-012>017-300900-
NORTHWEST AND NORTH CENTRAL SOUTH DAKOTA

CITY           SKY/WX    TMP DP  RH WIND       PRES   REMARKS
BUFFALO          N/A     62  43  49 SE17      30.03F
FAITH            N/A     55  42  61 SE21      30.13F
MOBRIDGE       CLEAR     57  46  66 SE15      30.21S
$$

SDZ012>016-024>037-041>051-057-063-072>074-300900-
SOUTHWEST AND SOUTH CENTRAL SOUTH DAKOTA

CITY           SKY/WX    TMP DP  RH WIND       PRES   REMARKS
RAPID CTY ARPT PTCLDY    59  43  55 SE16      30.15F
PIERRE         CLEAR     53  45  74 SE13      30.23S
CUSTER         CLOUDY    56  40  55 CALM      30.25F
ELLSWORTH AFB  PTCLDY    61  44  53 S14       30.12F
PHILIP         PTCLDY    52  42  69 E8        30.19S
PINE RIDGE     CLEAR     58  42  55 S23G35    30.18F
WINNER         FAIR      53  44  71 S16       30.26F
$$

SDZ004>011-016>023-039-040-300900-
NORTHEAST SOUTH DAKOTA

CITY           SKY/WX    TMP DP  RH WIND       PRES   REMARKS
ABERDEEN       CLEAR     46  43  89 SE8       30.31S
WATERTOWN      CLEAR     50  45  83 SE3       30.35S
SISSETON         N/A     41  40  96 SE5       30.36S
$$

SDZ017-020-022-023-036>040-048>070-300900-
SOUTHEAST SOUTH DAKOTA

CITY           SKY/WX    TMP DP  RH WIND       PRES   REMARKS
SIOUX FALLS    CLEAR     46  44  93 NE5       30.36R
HURON          CLEAR     49  45  86 SE9       30.31S
CHAMBERLAIN    CLEAR     49  48  94 SE6       30.28S
MITCHELL       CLEAR     48  45  89 S6        30.33S
YANKTON        CLEAR     46  45  93 NE6       30.32F
$$

ABBREVIATIONS USED IN REMARKS
   TC - TEMPERATURE IN CELSIUS
  WCI - WIND CHILL INDEX
   HX - HEAT INDEX
  VSB - VISIBILITY





USA.gov is the U.S. government's official web portal to all federal, state and local government web resources and services.